#timestamp,LO_Frequency,Hit,StdDev 
1633082415.2,286047001.9,N
1633082435.0,286047004.0,N
1633082435.9,286047004.0,N
1633082455.7,286047005.8,Y
1633082475.6,286047003.2,P
1633082495.4,286047005.7,P
1633082515.3,286047004.5,N
1633082535.1,286047006.9,Y
1633082555.8,286047003.5,P
1633082575.7,286047003.4,P
1633082595.5,286047005.4,P
1633082615.4,286047005.1,Y
1633082635.2,286047000.6,P
1633082655.0,286046998.2,N
1633082655.9,286046998.2,N
1633082675.8,286047000.7,N
1633082695.6,286047000.9,N
1633082715.4,286047000.4,N
1633082735.3,286047002.5,N
1633082755.1,286047002.5,N
1633082775.9,286047000.1,N
1633082795.7,286047011.9,Y
1633082815.5,286046998.4,P
1633082835.4,286046998.7,N
1633082855.2,286046998.9,N
1633082875.1,286046997.0,Y
1633082876.0,286046997.0,P
1633082895.8,286046999.3,N
1633082915.6,286046999.3,N
1633082935.5,286046997.0,Y
1633082955.3,286047000.5,P
1633082975.1,286047001.1,N
1633082995.9,286047000.3,N
1633083015.7,286047001.1,N
1633083035.6,286046998.7,N
1633083055.4,286046998.4,N
1633083075.2,286046998.8,N
1633083095.1,286046999.2,N
1633083096.0,286046999.2,N
1633083115.8,286046999.0,N
1633083135.7,286046998.6,N
1633083155.5,286046998.8,N
1633083175.3,286046999.5,N
1633083195.2,286046999.1,N
1633083215.0,286046998.4,N
1633083215.9,286046998.4,N
1633083235.8,286046999.4,N
1633083255.6,286046997.8,N
1633083275.4,286046995.8,Y
1633083295.3,286046994.2,P
1633083315.1,286046994.3,N
1633083335.9,286046993.9,N
1633083355.7,286046994.2,N
1633083375.5,286046994.0,N
1633083395.4,286046993.9,Y
1633083415.2,286047000.3,P
1633083435.0,286047001.2,N
1633083435.9,286047001.2,N
1633083455.8,286046996.9,N
1633083475.6,286046997.1,N
1633083495.5,286046997.0,N
1633083515.3,286046996.5,N
1633083535.1,286046999.4,N
1633083555.9,286046998.8,N
1633083575.7,286046996.5,N
1633083595.6,286046999.4,N
1633083615.4,286047001.0,N
1633083635.2,286047000.2,N
1633083655.1,286047000.1,N
1633083656.0,286047000.1,N
1633083675.8,286047002.4,N
1633083695.8,286047000.3,N
1633083715.6,286046998.1,N
1633083735.4,286046998.8,N
1633083755.3,286046999.2,N
1633083775.1,286046999.6,N
1633083795.8,286046997.3,N
1633083815.7,286046996.7,N
1633083835.5,286046996.8,N
1633083855.4,286046996.9,N
1633083875.2,286046999.2,N
1633083895.0,286046996.9,N
1633083895.9,286046996.9,N
1633083915.8,286046998.8,N
1633083935.6,286046998.9,N
1633083955.4,286046996.6,N
1633083975.3,286046997.0,N
1633083995.1,286046995.0,Y
1633084015.9,286046997.8,P
1633084035.7,286046996.6,P
1633084055.5,286046996.9,P
1633084075.4,286046999.5,N
1633084095.2,286047001.2,N
1633084115.1,286046998.4,N
1633084116.0,286046998.4,N
1633084135.8,286046996.7,N
1633084155.6,286046996.9,N
1633084175.5,286046998.6,N
1633084195.3,286046998.8,N
1633084215.2,286046996.6,N
1633084235.9,286046996.6,N
1633084255.7,286046999.5,N
1633084275.6,286046999.2,N
1633084295.4,286046998.5,N
1633084315.3,286047000.0,N
1633084335.1,286047002.3,N
1633084336.0,286047002.3,N
1633084355.8,286047002.4,N
1633084375.7,286047001.3,N
1633084395.5,286047003.7,N
1633084415.3,286047003.1,N
1633084435.2,286047001.4,N
1633084455.0,286047002.1,N
1633084455.9,286047002.1,N
1633084475.8,286047002.4,N
1633084495.6,286047002.0,N
1633084515.4,286047000.3,N
1633084535.3,286046998.6,N
1633084555.1,286047000.0,N
1633084575.8,286047001.0,N
1633084595.7,286047000.7,N
1633084615.5,286047000.6,N
1633084635.4,286047001.1,N
1633084655.2,286046996.6,N
1633084675.0,286046999.4,N
1633084675.9,286046999.4,N
1633084695.8,286046996.6,N
1633084715.6,286046998.8,N
1633084735.5,286046998.6,N
1633084755.3,286046998.2,N
1633084775.1,286047000.9,N
1633084795.9,286046998.1,N
1633084815.7,286047000.8,N
1633084835.5,286046999.9,N
1633084855.4,286047000.8,N
1633084875.2,286046998.3,N
1633084895.1,286046996.5,N
1633084896.0,286046996.5,N
1633084915.8,286046997.5,N
1633084935.6,286046995.5,N
1633084955.5,286046995.3,N
1633084975.3,286046995.5,N
1633084995.1,286046994.9,N
1633085015.9,286046997.4,N
1633085035.7,286046997.3,N
1633085055.6,286046997.3,N
1633085075.4,286046996.7,N
1633085095.2,286046997.1,N
1633085115.1,286046999.1,N
1633085116.0,286046999.1,N
1633085135.8,286046997.0,N
1633085155.7,286046996.8,N
1633085175.5,286046998.8,N
1633085195.3,286047001.2,N
1633085215.2,286047000.5,N
1633085235.9,286047000.9,N
1633085255.7,286047002.8,N
1633085275.6,286047002.0,N
1633085295.4,286047002.8,N
1633085315.3,286047002.0,N
1633085335.1,286047001.4,N
1633085336.0,286047001.4,N
1633085355.8,286047002.2,N
1633085375.7,286047001.5,N
1633085395.5,286047002.5,N
1633085415.3,286047004.2,N
1633085435.2,286047001.4,N
1633085455.0,286047001.5,N
1633085455.9,286047001.5,N
1633085475.8,286047001.3,N
1633085495.6,286047004.0,N
1633085515.4,286047002.9,N
1633085535.3,286047005.9,N
1633085555.1,286047005.6,N
1633085575.9,286047003.6,N
1633085595.7,286047002.9,N
1633085615.5,286047003.9,N
1633085635.4,286047004.4,N
1633085655.2,286047001.3,N
1633085675.1,286047002.0,N
1633085676.0,286047002.0,N
1633085695.8,286047002.5,N
1633085715.6,286047001.9,N
1633085735.5,286046998.2,N
1633085755.3,286047000.5,N
1633085775.1,286047001.0,N
1633085795.9,286046998.6,N
1633085815.7,286046998.5,N
1633085835.6,286046998.4,N
1633085855.4,286046998.9,N
1633085875.2,286047000.8,N
1633085895.1,286047001.2,N
1633085896.0,286047001.2,N
1633085915.8,286047000.1,N
1633085935.7,286047002.3,N
1633085955.5,286047002.8,N
1633085975.3,286047000.1,N
1633085995.2,286046999.8,N
